    C/2009 O2 (Catalina)
Epoch 2010 Mar. 25.0 TT = JDT 2455280.5  
T 2010 Mar. 24.40699 TT                                 Nakano
q   0.6953669            (2000.0)            P               Q
z  +0.0036341      Peri.  133.40707     -0.61482379     -0.30747246
 +/-0.0000087      Node   310.23082     +0.07370467     +0.89444095
e   0.9974730      Incl.  107.95712     +0.78521292     -0.32470920
From 189 observations 2009 July 27-2010 Jan. 25, mean residual 0".66.
   (1/a)org.= +0.000314, (1/a)fut.= +0.004089 (+/-0.000009), Q= 6.
   The comet has passed 0.24 AU from Jupiter on 2009 Apr. 1 and will
   pass 0.81 AU from Earth on 2010 Mar. 25 UT.
   K. Kadota, Ageo, gives the total CCD magnitude = 13.2 on 2010 Jan. 24 
   and 13.0 on Jan. 25 with bright coma (about 1'.3).
Residuals in seconds of arc 
2009/                     090730 854  0.6-  1.6+    090820 585  0.2+  0.5-  
090727 703  0.7+  1.3+    090730 H01  0.2-  0.5+    090820 585  0.2-  0.3+  
090727 703  0.5+  0.3-    090730 H01  0.3-  0.3+    090820 160  1.3-  0.5+  
090727 703  0.1-  1.0+    090730 H10  0.8-  0.5+    090820 561  0.5-  0.2+  
090727 703  0.9-  0.9-    090730 H01  0.3-  0.2+    090820 160  1.7-  0.3+  
090728 291  0.4-  0.0     090730 H10  1.2+  0.0     090820 160  0.8-  0.1-  
090728 291  1.1-  0.1+    090730 H01  0.3-  0.2+    090820 561  1.2-  0.3+  
090728 703  0.4+  1.3-    090730 H10  0.8+  0.5-    090820 204  0.4+  0.3-  
090728 703  1.7-  0.2-    090730 A79  1.0-  0.2-    090822 J47  0.3+  0.9+  
090728 703  0.1+  0.5-    090730 A79 (2.3-  0.2+)   090822 J47  0.3+  0.6+  
090728 H36  0.3-  0.0     090730 198  0.9+  0.0     090822 J47  0.5+  1.2+  
090728 703  0.1-  0.3-    090730 198  0.4+  0.8-    090823 850  0.8-  0.4-  
090728 H36  0.1+  0.0     090730 198  0.5+  0.3-    090823 850 (2.5-  0.3+) 
090728 H36  0.2+  0.4-    090731 A77 (2.6+  1.4+)   090823 367  0.3-  0.0   
090728 H01  0.4-  0.1+    090731 A77  0.4-  1.0+    090823 367  1.2+  0.3-  
090728 H01  0.4-  0.2+    090731 213  0.3+  0.4-    090824 850  0.1+  0.1-  
090728 H01  0.3-  0.3+    090731 A77  0.7+  0.5+    090824 850 (4.2-  0.0 ) 
090728 H01  0.2-  0.3+    090731 213  0.3+  0.1-    090824 900  1.3-  0.6-  
090728 A17  0.9+  1.0-    090809 B18  0.7+  0.2-    090824 900  0.4-  0.1-  
090728 A17  0.3+  0.3+    090809 B18  1.7+  0.2-    090825 H45  0.1-  0.2+  
090728 198  0.6+  0.1-    090809 B18  1.4+  0.2+    090825 H45  0.1+  0.1+  
090728 198  0.3+  0.2-    090810 B18  0.9+  1.3-    090825 H45  0.0   0.0   
090728 198  0.1-  0.4-    090810 B18 (2.2+  0.9-)   090825 H45  0.3+  0.1+  
090728 198  0.1-  0.1-    090810 B18  0.8+  0.1+    090825 H45  0.3+  0.2+  
090728 A17  0.2-  0.6+    090810 213  1.1+  0.1+    090825 H45  0.9+  0.0   
090728 204  0.6+  0.7-    090810 213  1.0+  0.2-    090825 H45  0.3+  0.1+  
090729 703 (2.5-  0.4-)   090810 213  1.4+  0.2-    090825 H45  0.2-  0.1+  
090729 703  0.1-  1.2-    090812 A77  0.6+  0.7+    090825 585  0.8-  0.6-  
090729 703 (0.8-  2.9-)   090812 A77  0.0   0.0     090825 585  0.5-  0.4-  
090729 703  1.1+  0.8+    090812 A77  1.4-  0.5+    090825 585  0.1-  0.7-  
090729 673  0.4-  1.0+    090813 160  0.5-  0.1+    090825 585  1.4-  1.0-  
090729 673  0.2-  0.7+    090813 160  0.6-  0.1-    090825 585  0.0   0.6-  
090729 673  0.2+  0.3+    090814 900  0.1+  0.7-    090825 585  0.0   0.4+  
090729 673  0.1-  0.3+    090814 900  0.2+  0.2-    090827 H45  0.3-  1.1+  
090729 703  0.2-  0.1-    090815 215  0.0   0.8+    090827 H45  0.5+  1.2+  
090729 703  0.0   1.5-    090816 H10  0.7+  0.2+    090827 H45  0.9+  1.4+  
090729 703  1.5-  0.1-    090816 H10  0.6+  0.5+    090827 H10  0.6-  0.1-  
090729 703  0.2-  0.9-    090816 349  0.5+  0.5-    090827 H45  1.0+  1.5+  
090729 160  0.2+  0.6+    090816 349  1.3+  1.2-    090827 H45  0.7+  1.4+  
090729 160  0.3-  0.6+    090817 704  0.6+  0.5+    090827 H10  0.3-  0.2-  
090729 160  1.2-  0.4+    090817 704  0.8-  1.0+    090829 585  1.7-  0.8+  
090729 198  0.6+  0.3+    090817 704  0.4-  0.5+    090829 585  1.4-  0.0   
090729 160  0.3-  0.9-    090818 703  0.2+  0.4-    090910 J47  0.7+  0.5+  
090729 595  0.3+  0.6+    090818 703  0.6+  0.9+    090910 J47  0.1-  0.2+  
090729 160  1.2+  1.4-    090818 703  0.7+  0.9+    090910 J47  0.7-  0.0   
090729 J95  0.8+  0.0     090818 703  1.1+  1.0-    090911 160  0.9-  0.7-  
090729 J95  0.4+  0.5+    090818 D90  1.7-  0.8-    090912 J47  0.6+  0.5-  
090729 595  0.9+  0.4+    090818 D90  0.3-  0.6-    090912 J47  0.3+  0.6-  
090729 B28  0.9+  0.1+    090818 D90  0.2-  0.6-    090919 D90  0.7+  1.2-  
090729 J95  0.3+  0.2-    090818 585  0.7+  0.2-    090919 D90  0.3-  0.6-  
090729 B28  0.2+  0.3-    090818 585  0.7+  1.5-    090921 585  0.4+  0.7+  
090729 198  0.5-  0.6+    090818 147  1.7-  1.6-    090921 585  0.3+  0.4+  
090729 595  0.1+  0.6+    090818 147  1.3-  0.5-    090921 585  0.2+  0.9+  
090729 204  0.1-  0.3-    090818 157  0.3-  0.9+    090921 585  0.3+  0.3-  
090729 198  0.6-  0.1+    090818 147  0.4+  1.7-    090921 585  1.0+  0.4-  
090729 B28  0.4-  0.2+    090818 157  0.6-  0.1+    090921 585  0.4+  0.1-  
090730 H55  0.1-  0.4+    090818 J47  0.7+  0.6-    090921 585  0.6+  0.0   
090730 H55  0.1-  0.6+    090818 J47  0.4+  0.8-    090923 130 (3.0-  1.4-) 
090730 H55  0.2-  0.9+    090818 J47  0.2+  1.0-    090923 130 (3.6-  0.7+) 
090730 291  0.4-  0.0     090820 212  0.6-  0.1-    091011 160  0.3-  0.2+  
090730 291  0.5-  0.3+    090820 A79  0.6+  0.6+    2010/                   
090730 291  0.5-  0.3+    090820 A79  0.2-  0.6+    100124 349  0.1-  0.2+  
090730 291  0.4-  0.2+    090820 585  0.9-  1.1-    100124 349  0.1-  0.2+  
090730 291  0.2-  0.3+    090820 585  0.8-  0.0     100124 349  0.1+  0.3+  
090730 703 (2.5+  0.5+)   090820 585  0.1+  0.1-    100125 349  0.2-  0.3-  
090730 703  0.9-  0.4-    090820 585  1.4-  0.8-    100125 349  0.1+  0.1-  
090730 854  0.9+  0.2+    090820 585  0.1-  0.1-    100125 349  0.1+  0.0   
NAKANO
         **** Don't distribute anyone except personal use only ****
           (C) Copyright 2010 Orbit.Astro.Assoc./ComputingSection
write mail from CFAD0::NAKANO on 2010-01-26 08:30:31(JST).
 
    C/2009 O2 (Catalina)
Epoch 2010 Mar. 25.0 TT = JDT 2455280.5  
T 2010 Mar. 24.40699 TT                                 Nakano
q   0.6953669            (2000.0)            P               Q
z  +0.0036341      Peri.  133.40707     -0.61482379     -0.30747246
 +/-0.0000087      Node   310.23082     +0.07370467     +0.89444095
e   0.9974730      Incl.  107.95712     +0.78521292     -0.32470920
From 189 observations 2009 July 27-2010 Jan. 25, mean residual 0".66.
   (1/a)org.= +0.000314, (1/a)fut.= +0.004089 (+/-0.000009), Q= 6.
   The comet has passed 0.24 AU from Jupiter on 2009 Apr. 1 and will
   pass 0.81 AU from Earth on 2010 Mar. 25 UT.
   K. Kadota, Ageo, gives the total CCD magnitude = 13.2 on 2010 Jan. 24 
   and 13.0 on Jan. 25 with bright coma (about 1'.3).
Residuals in seconds of arc 
NAKANO
         **** Don't distribute anyone except personal use only ****
           (C) Copyright 2010 Orbit.Astro.Assoc./ComputingSection
write mail from CFAD0::NAKANO on 2010-01-26 08:30:31(JST).
 
    C/2009 O2 (Catalina)
T 2010 Mar. 24.24706 TT                                 Nakano
q   0.6936255            (2000.0)            P               Q
z  +0.0040177      Peri.  133.47539     -0.61438149     -0.30739461
 +/-0.0000853      Node   310.22477     +0.07529751     +0.89393956
e   0.9972132      Incl.  107.87363     +0.78540796     -0.32616041
From 183 observations 2009 July 27-Sept. 21.
NAKANO
         **** Don't distribute anyone except personal use only ****
           (C) Copyright 2009 Orbit.Astro.Assoc./ComputingSection
write mail from CFAD0::NAKANO on 2009-10-05 07:53:04(JST).
 

    C/2009 O2 (Catalina)
T 2010 Mar. 25.11079 TT                                 Nakano
q   0.7067521            (2000.0)            P               Q
                   Peri.  132.88235     -0.61715707     -0.30926316
                   Node   310.28468     +0.06205892     +0.89752319
e   1.0            Incl.  108.47768     +0.78438883     -0.31433807
From 156 observations 2009 July 27-Aug. 27.

NAKANO
         **** Don't distribute anyone except personal use only ****
           (C) Copyright 2009 Orbit.Astro.Assoc./ComputingSection
write mail from CFAD0::NAKANO on 2009-09-05 06:52:59(JST).
 
◎C/2009 O2の軌道と予報位置

 この彗星は,下の位置予報のとおり,来春には,8等級まで明るくなるでしょう.

    C/2009 O2 (Catalina)
T 2010 Mar. 25.36031 TT                                 Nakano
q   0.7090343            (2000.0)            P               Q
                   Peri.  132.80544     -0.61730428     -0.30967651
                   Node   310.29055     +0.06047919     +0.89787000
e   1.0            Incl.  108.53439     +0.78439639     -0.31293755
From 79 observations 2009 July 27-31.

